Location: Botts Cemetery
(34.9393°N, 89.7795°W)
Time: 14:41:11
(UTC+00:00)

Daily predictions for brighter satellites

Satellite Brightness Start Highest point End
(mag) Time Altitude Azimuth Time Altitude Azimuth Time Altitude Azimuth
Lacrosse 4 Rocket 4.1 12:05:04 10° NNE 12:07:21 15° NE 12:09:38 10° E
Cosmos 1315 Rocket 2.8 12:05:24 10° S 12:09:05 77° E 12:12:49 10° NNE
Cosmos 2233 Rocket 4.5 12:04:23 10° S 12:10:26 67° E 12:16:34 10° NNE
Hubble Space Telescope 2.4 12:10:48 10° SW 12:13:57 25° S 12:17:05 10° ESE
Cosmos 2360 Rocket 2.3 12:08:49 10° SW 12:14:16 53° WNW 12:19:46 10° NNE
Cosmos 2278 4.4 12:10:03 10° WSW 12:15:00 31° WNW 12:19:59 10° N
USA 229 DEB 3.6 12:09:56 10° SSW 12:15:40 78° ESE 12:22:00 10° NNE
USA 229 3.6 12:10:01 10° SSW 12:15:44 77° ESE 12:22:04 10° NE
DELTA 2 R/B (1) 3.8 12:11:40 10° W 12:17:09 61° NNW 12:22:41 10° ENE
ATLAS 3B R/B 3.3 12:10:18 10° SSW 12:17:38 73° ESE 12:25:26 10° NE
Cosmos 1356 Rocket 3.4 12:14:36 10° S 12:18:25 80° E 12:22:16 10° N
Cosmos 2333 4.3 12:14:50 10° SSW 12:20:27 60° WNW 12:26:04 10° NNE
Cosmos 1802 Rocket 4.1 12:16:52 10° SSW 12:22:55 57° W 12:29:08 10° N
